{"data":{"norad_id":65589,"intl_designator":"2025-206A","name":"COSMOS 2595 (MOZHAETS 6)","alt_names":[],"object_type":"PAYLOAD","status":"ACTIVE","operator":null,"country":"CIS","launch_date":"2025-09-13","launch_site_code":"PLMSC","launch_vehicle":null,"mission":null,"orbit_class":"UNKNOWN","rcs_meters":null,"size_class":null,"mass_kg":null,"dimensions":null,"purposes":[],"wikipedia_slug":null,"has_3d_model":false,"image_url":null,"decayed_at":null,"tle_current":{"epoch":"2026-05-24T00:03:47.833344Z","epoch_age_seconds":157171,"freshness":"FRESH","line1":"1 65589U 25206A   26144.00263696 -.00000045  00000+0  00000+0 0  9995","line2":"2 65589  64.6535 315.6878 0065807 305.4446  53.9403  2.14901283  5430","mean_motion":2.14901283,"eccentricity":0.0065807,"inclination_deg":64.6535,"raan_deg":315.6878,"arg_perigee_deg":305.4446,"mean_anomaly_deg":53.9403,"bstar":0,"rev_number":543,"period_min":670.07510606626,"perigee_km":18820.386582561,"apogee_km":19154.231363188,"semimajor_km":25365.445972875,"source":"CELESTRAK","updated_at":"2026-05-25T13:38:05.524765Z"}}}